Погода в Архаре

Погода в Архаре : погода сейчас, прогноз погоды и архив. Всё, что Вы хотите узнать о погоде в Архаре!

Хотите узнать прогноз погоды в Архаре? Тогда Вам сюда: Погода в Архаре

Поиск расширенной информации на нашем сайте:

Другие новости

Новости СМИ2

Главная страница сайта

Новости сайта

02.10.2013

Напоминаем, что на нашем новом сайте вы можете получить высокодетализированные прогнозы погоды по пунктам России, СНГ и мира (включающие важные для авиации метеовеличины, такие как направление и скорость ветра, видимость, явления погоды, количество и форма облачности, нижняя и верхняя граница облачности), а также ознакомиться с разнообразными материалами по авиационной метеорологии и подборкой полезных ссылок на эту тему.

Сайт Метеоцентр.Азия посвящён разработке технологий оптимизации авиаметеорологического обслуживания, включая проектирование и перспективное создание нескольких автоматизированных авиаметеорологических систем:
- система выпуска высокодетальных прогностических карт явлений погоды для нижнего воздушного пространства по России и ближнему зарубежью;
- система верификации прогнозов TAF (выпускаемых синоптиками официальных АМСГ РФ и ближнего зарубежья) и AUTOTAF (выпускаемых сайтом Метеоцентр.Азия) - выявление ошибок, онлайн-сопоставление с фактической погодой METAR, автоматическое внесение коррективов в прогнозы при резком отклонении фактической погоды от прогноза, подсчёт оправдываемости прогнозов по элементам и в целом;
- система обработки, анализа и отображения авиаметеорологической информации для применения провайдерами метеорологической информации.

Рекомендуем: Описание офигенное радио на нашем сайте.

Погода в Архаре - сегодня

Время (UTC), дата Ветер
(°,м/с) 
Видим.   Явления Облачность Т
(°С)
Тd
(°С)
f(%) Тe
(°С)
Pmin
(гПа)
dP
(гПа)
Po
(мм)
O2
(г/м3)
Тmin Tmax R s Состояние
почвы
18 16.01.17 010 (С) 20000 м    5/0 верхняя 
[Ci fib]
-22.4 -25.3 77 -23  1032.9  -0.3  761  336           
21 16.01.17 140 (ЮВ) 20000 м    ясно 
-25.6 -28.8 74 -26  1033  -0.2  760  340           
00 17.01.17 тихо ()   10 км    3/0 верхняя 
[Ci fib]
-26.8 -30.1 74 -27  1033.4  0.3  761  342  -27.9      25  равномерный
сухой снег
100% 
03 17.01.17 200 (Ю) 20000 м    3/0 верхняя 
[Ci fib]
-18.2 -24.4 58 -18  1032.4  -0.4  760  330           
06 17.01.17 250 (З) 20000 м    3/0 средняя, верхняя 
[Ac trans|Ci fib]
-14.3 -22.2 51 -16  1030.8  -1.2  759  325           
09 17.01.17 тихо ()   20000 м    ясно 
-19.2 -23.7 68 -19  1031.2  759  331           
12 17.01.17 120 (ЮВ) 20000 м    ясно 
-23.4 -26.2 78 -24  1031.3  -0.2  759  336    -14       
15 17.01.17 тихо ()   20000 м    ясно 
-27.9 -31.6 71 -28  1031.6  0.1  759  343           
18 17.01.17 тихо ()   20000 м    ясно 
-29.3 -33.1 70 -29  1031.8  -0.1  759  345           
21 17.01.17 030 (СВ) 20000 м    ясно 
-30.2 -34.1 69 -31  1031.2  -0.6  759  346           
00 18.01.17 360 (С) 10 км    4/0 верхняя 
[Ci fib]
-29.7 -33.6 69 -30  1031.2  759  345  -31.2      25  равномерный
сухой снег
100% 
03 18.01.17 250 (З) 10 км    4/0 верхняя 
[Ci fib]
-20.5 -25 67 -21  1030.2  -0.3  759  332           
06 18.01.17 290 (З) 20000 м    8/0 верхняя 
[Ci fib]
-18.4 -23.9 62 -21  1028.9  -1.1  758  329           
09 18.01.17 360 (С) 20000 м    3/0 верхняя 
[Ci fib]
-22.1 -25.5 74 -22  1029.6  0.4  758  334           
12 18.01.17 тихо ()   20000 м    ясно 
-28.6 -32 72 -29  1030.1  758  343    -18.2       
15 18.01.17 тихо ()   20000 м    ясно 
-29.8 -33.7 69 -30  1030.3  0.1  758  345           
18 18.01.17 130 (ЮВ) 20000 м    ясно 
-29.8 -33.5 70 -31  1030.6  0.4  758  345           
21 18.01.17 тихо ()   20000 м    ясно 
-31.7 -35.8 67 -32  1030.2  -0.6  758  348           
00 19.01.17 тихо ()   10 км    4/0 верхняя 
[Ci fib]
-31.7 -35.8 67 -32  1030.4  0.2  758  348  -32.4      25  равномерный
сухой снег
100% 
03 19.01.17 210 (ЮЗ) 10 км    3/0 верхняя 
[Ci fib]
-22 -26.5 67 -22  1029.1  -0.5  758  334           
06 19.01.17 290 (З) 20000 м    10/0 верхняя 
[Ci fib]
-18.4 -24.7 58 -21  1027.1  -1.6  757  329           
09 19.01.17 тихо ()   20000 м    1/0 верхняя 
[Ci fib]
-21.8 -25.9 69 -22  1027.5  0.1  757  333           
12 19.01.17 350 (С) 20000 м    10/0 верхняя 
[Ci fib]
-29.6 -33.3 70 -30  1028.2  0.1  757  344    -17.9       
15 19.01.17 160 (Ю) 20000 м    10/0 верхняя 
[Ci fib]
-31.5 -35.6 67 -32  1027.8  -0.5  756  346           
18 19.01.17 тихо ()   20000 м    ясно 
-31.4 -35.5 67 -31  1027.1  -0.7  756  346           
Время (UTC), дата Ветер
(°,м/с) 
Видим.   Явления Облачность Т
(°С)
Тd
(°С)
f(%) Тe
(°С)
Pmin
(гПа)
dP
(гПа)
Po
(мм)
O2
(г/м3)
Тmin Tmax R s Состояние
почвы

Для получения пояснительной информации подведите курсор к названию столбца.

ПОГОДА в Архаре - архив

Всё, что Вы хотите узнать о погоде в Архаре - удобно и подробно!

Выберите нужную дату (начиная с 1 января 2015* года) и нажмите кнопку "Найти".
Будут отображены архивные сводки погоды по пункту Архара, начиная с указанной даты.


Отображать данные в формате CSV (для использования в таблицах Excel)


Внимание! Наш архив погоды предназначен исключительно для личного некоммерческого использования в познавательных целях. Если Вам необходимы официальные справки о состоянии погоды (для производственных, юридических, коммерческих и т.п. целей), обращайтесь в органы Росгидромета.

*Примечание: данная дата относится к архиву по метеостанциям СССР (Россия, СНГ, Балтия).
Архив по метеостанциям Зарубежной Европы и Азии (кроме Китая) хранится 10 дней, по другим регионам земного шара (Китай, Африка, Америка, Австралия, Океания) - 1 день.

Архара - район местоположения метеостанции


Название, широта, долгота, высота метеостанции:
Архара 49.4°ш. 130.1°д. 135 м над ур. моря [Российская Федерация]

Дополнительная информация

В oтличие oт бoльшинства пoгoдных сайтoв мы публикуем пoдрoбную метеoинфoрмацию в детальнoм прoфессиoнальнoм фoрмате.

Характеристики температуры и влажнoсти вoздуха измеряются на высoте 2 м в тени вдали oт зданий и деревьев.
Скoрoсть ветра измеряется на высoте 10 м (на урoвне рoста челoвека скoрoсть ветра ниже в 1.5-2 раза). Если метеoстанция нахoдится в гoрoде или в лесу, тo скoрoсть ветра занижена на 2-4 м/с пo сравнению с oткрытым местoм. Скoрoсть ветра над акватoриями крупных рек и oзёр, а также на вершинах хoлмoв на 2-5 м/с выше, чем в oбычных услoвиях.
Атмoсфернoе давление в разных тoчках местнoсти мoжет значительнo oтличаться oт давления на метеoстанции, в зависимoсти oт услoвий рельефа (при пoдъёме на 10 м давление пoнижается примернo на 1 мм рт.ст.).